カタログに戻る

STARLINK-5805

運用中通信VLEO
NORAD 56912·PAYLOAD·🇺🇸 United States

打ち上げ Jun 12, 2023 から Cape Canaveral Space Force Station

Loading…

次のパス (今後24時間)

TLE

最新Source: CelesTrak SupGP

元期: Sep 14, 2026, 22:09 UTC

1 56912C 23083AN  26257.92340278  .00031686  00000+0  11483-2 0  2575
2 56912  43.0032  82.1381 0001430 276.6998 214.0749 15.27545427    15

AllMySatでSTARLINK-5805をリアルタイム追跡

Download on the App Store